Location: Unspecified
(0.0000°N, 0.0000°E)
Time: 04:44:52
(UTC+00:00)

N. Korean satellite - Pass Details

Date: 19 January 2017
Orbit: 460 x 518 km, 97.2° (Epoch: 22 July)

Event Time Altitude Azimuth Distance (km) Brightness Sun altitude
Rises 19:01:59 0° 178° (S) 2,482 10.4 -12.0°
Reaches altitude 10° 19:04:04 10° 183° (S) 1,605 9.5 -12.5°
Maximum altitude 19:07:23 49° 259° (W) 604 7.5 -13.2°
Drops below altitude 10° 19:10:43 10° 335° (NNW) 1,606 9.2 -14.0°
Sets 19:12:49 0° 341° (NNW) 2,484 10.2 -14.5°
